Time,TemperatureF,DewpointF,PressureIn,WindDirection,WindDirectionDegrees,WindSpeedMPH,WindSpeedGustMPH,Humidity,HourlyPrecipIn,Conditions,Clouds,dailyrainin,SoftwareType,DateUTC
2013-06-01 00:02:00,69.0,-99.9,-100.00,SSW,204,4.0,7.0,-999,0.00,,,-99.99,,2013-06-01 05:02:00,
2013-06-01 00:12:00,69.0,-99.9,-100.00,SSW,204,4.0,7.0,-999,0.00,,,-99.99,,2013-06-01 05:12:00,
2013-06-01 00:22:00,69.0,-99.9,-100.00,SSW,204,4.0,7.0,-999,0.00,,,-99.99,,2013-06-01 05:22:00,
2013-06-01 00:32:00,69.0,-99.9,-100.00,SW,216,4.0,6.0,-999,0.00,,,-99.99,,2013-06-01 05:32:00,
2013-06-01 00:43:00,69.0,-99.9,-100.00,SW,216,4.0,6.0,-999,0.00,,,-99.99,,2013-06-01 05:43:00,
2013-06-01 00:52:00,69.0,-99.9,-100.00,SSW,204,3.0,6.0,-999,0.00,,,-99.99,,2013-06-01 05:52:00,
2013-06-01 01:01:00,69.0,-99.9,-100.00,SSW,204,3.0,6.0,-999,0.00,,,-99.99,,2013-06-01 06:01:00,
2013-06-01 01:12:00,69.0,-99.9,-100.00,SSW,204,3.0,6.0,-999,0.00,,,-99.99,,2013-06-01 06:12:00,
2013-06-01 01:22:00,69.0,-99.9,-100.00,SSW,204,3.0,6.0,-999,0.00,,,-99.99,,2013-06-01 06:22:00,
2013-06-01 01:30:00,68.0,-99.9,-100.00,South,191,3.0,7.0,-999,0.00,,,-99.99,,2013-06-01 06:30:00,
2013-06-01 01:32:00,69.0,-99.9,-100.00,SSW,200,3.0,6.0,-999,0.00,,,-99.99,,2013-06-01 06:32:00,
2013-06-01 01:42:00,69.0,-99.9,-100.00,SSW,200,3.0,6.0,-999,0.00,,,-99.99,,2013-06-01 06:42:00,
2013-06-01 01:52:00,68.0,-99.9,-100.00,South,191,3.0,7.0,-999,0.00,,,-99.99,,2013-06-01 06:52:00,
2013-06-01 02:02:00,68.0,-99.9,-100.00,South,191,3.0,7.0,-999,0.00,,,-99.99,,2013-06-01 07:02:00,
2013-06-01 02:11:00,68.0,-99.9,-100.00,South,191,3.0,7.0,-999,0.00,,,-99.99,,2013-06-01 07:11:00,
2013-06-01 02:22:00,68.0,-99.9,-100.00,South,191,3.0,7.0,-999,0.00,,,-99.99,,2013-06-01 07:22:00,
2013-06-01 02:30:00,68.0,-99.9,-100.00,South,191,2.0,4.0,-999,0.00,,,-99.99,,2013-06-01 07:30:00,
2013-06-01 03:02:00,68.0,-99.9,-100.00,South,191,2.0,4.0,-999,0.00,,,-99.99,,2013-06-01 08:02:00,
2013-06-01 03:12:00,68.0,-99.9,-100.00,South,191,2.0,4.0,-999,0.00,,,-99.99,,2013-06-01 08:12:00,
2013-06-01 03:22:00,68.0,-99.9,-100.00,South,191,2.0,4.0,-999,0.00,,,-99.99,,2013-06-01 08:22:00,
2013-06-01 03:52:00,68.0,-99.9,-100.00,SSW,207,4.0,7.0,-999,0.00,,,-99.99,,2013-06-01 08:52:00,
2013-06-01 04:02:00,68.0,-99.9,-100.00,SSW,207,4.0,7.0,-999,0.00,,,-99.99,,2013-06-01 09:02:00,
2013-06-01 04:12:00,68.0,-99.9,-100.00,SSW,207,4.0,7.0,-999,0.00,,,-99.99,,2013-06-01 09:12:00,
2013-06-01 04:22:00,68.0,-99.9,-100.00,SSW,207,4.0,7.0,-999,0.00,,,-99.99,,2013-06-01 09:22:00,
2013-06-01 04:33:00,67.0,-99.9,-100.00,SSW,210,2.0,4.0,-999,0.00,,,-99.99,,2013-06-01 09:33:00,
2013-06-01 04:43:00,67.0,-99.9,-100.00,SSW,210,2.0,4.0,-999,0.00,,,-99.99,,2013-06-01 09:43:00,
2013-06-01 04:53:00,66.0,-99.9,-100.00,South,171,3.0,5.0,-999,0.00,,,-99.99,,2013-06-01 09:53:00,
2013-06-01 05:02:00,66.0,-99.9,-100.00,South,171,3.0,5.0,-999,0.00,,,-99.99,,2013-06-01 10:02:00,
2013-06-01 05:13:00,66.0,-99.9,-100.00,South,171,3.0,5.0,-999,0.00,,,-99.99,,2013-06-01 10:13:00,
2013-06-01 05:22:00,66.0,-99.9,-100.00,South,171,3.0,5.0,-999,0.00,,,-99.99,,2013-06-01 10:22:00,
2013-06-01 05:33:00,65.0,-99.9,-100.00,SSE,165,3.0,4.0,-999,0.00,,,-99.99,,2013-06-01 10:33:00,
2013-06-01 05:43:00,65.0,-99.9,-100.00,SSE,165,3.0,4.0,-999,0.00,,,-99.99,,2013-06-01 10:43:00,
2013-06-01 05:53:00,64.0,-99.9,-100.00,South,177,2.0,4.0,-999,0.00,,,-99.99,,2013-06-01 10:53:00,
2013-06-01 06:03:00,64.0,-99.9,-100.00,South,177,2.0,4.0,-999,0.00,,,-99.99,,2013-06-01 11:03:00,
2013-06-01 06:11:00,64.0,-99.9,-100.00,South,177,2.0,4.0,-999,0.00,,,-99.99,,2013-06-01 11:11:00,
2013-06-01 06:22:00,64.0,-99.9,-100.00,South,177,2.0,4.0,-999,0.00,,,-99.99,,2013-06-01 11:22:00,
2013-06-01 06:33:00,64.0,-99.9,-100.00,SSW,199,2.0,4.0,-999,0.00,,,-99.99,,2013-06-01 11:33:00,
2013-06-01 06:42:00,64.0,-99.9,-100.00,SSW,199,2.0,4.0,-999,0.00,,,-99.99,,2013-06-01 11:42:00,
2013-06-01 06:52:00,63.0,-99.9,-100.00,South,187,3.0,7.0,-999,0.00,,,-99.99,,2013-06-01 11:52:00,
2013-06-01 07:00:00,63.0,-99.9,-100.00,SSW,200,3.0,5.0,-999,0.00,,,-99.99,,2013-06-01 12:00:00,
2013-06-01 07:01:00,63.0,-99.9,-100.00,South,187,3.0,7.0,-999,0.00,,,-99.99,,2013-06-01 12:01:00,
2013-06-01 07:12:00,63.0,-99.9,-100.00,South,187,3.0,7.0,-999,0.00,,,-99.99,,2013-06-01 12:12:00,
2013-06-01 07:22:00,63.0,-99.9,-100.00,South,187,3.0,7.0,-999,0.00,,,-99.99,,2013-06-01 12:22:00,
2013-06-01 07:32:00,63.0,-99.9,-100.00,SSW,200,3.0,5.0,-999,0.00,,,-99.99,,2013-06-01 12:32:00,
2013-06-01 07:42:00,63.0,-99.9,-100.00,SSW,200,3.0,5.0,-999,0.00,,,-99.99,,2013-06-01 12:42:00,
2013-06-01 07:52:00,63.0,-99.9,-100.00,SSW,200,3.0,5.0,-999,0.00,,,-99.99,,2013-06-01 12:52:00,
2013-06-01 08:32:00,64.0,-99.9,-100.00,SSW,200,5.0,9.0,-999,0.00,,,-99.99,,2013-06-01 13:32:00,
2013-06-01 08:42:00,64.0,-99.9,-100.00,SSW,200,5.0,9.0,-999,0.00,,,-99.99,,2013-06-01 13:42:00,
2013-06-01 08:52:00,64.0,-99.9,-100.00,SSW,200,5.0,9.0,-999,0.00,,,-99.99,,2013-06-01 13:52:00,
2013-06-01 09:02:00,66.0,-99.9,-100.00,South,171,3.0,5.0,-999,0.00,,,-99.99,,2013-06-01 14:02:00,
2013-06-01 09:11:00,66.0,-99.9,-100.00,South,171,3.0,5.0,-999,0.00,,,-99.99,,2013-06-01 14:11:00,
2013-06-01 09:22:00,66.0,-99.9,-100.00,South,171,3.0,5.0,-999,0.00,,,-99.99,,2013-06-01 14:22:00,
2013-06-01 09:32:00,67.0,-99.9,-100.00,South,187,4.0,7.0,-999,0.00,,,-99.99,,2013-06-01 14:32:00,
2013-06-01 09:42:00,67.0,-99.9,-100.00,South,187,4.0,7.0,-999,0.00,,,-99.99,,2013-06-01 14:42:00,
2013-06-01 09:52:00,67.0,-99.9,-100.00,South,182,5.0,8.0,-999,0.00,,,-99.99,,2013-06-01 14:52:00,
2013-06-01 10:00:00,68.0,-99.9,-100.00,South,169,4.0,7.0,-999,0.00,,,-99.99,,2013-06-01 15:00:00,
2013-06-01 10:02:00,67.0,-99.9,-100.00,South,182,5.0,8.0,-999,0.00,,,-99.99,,2013-06-01 15:02:00,
2013-06-01 10:12:00,67.0,-99.9,-100.00,South,182,5.0,8.0,-999,0.00,,,-99.99,,2013-06-01 15:12:00,
2013-06-01 10:22:00,67.0,-99.9,-100.00,South,182,5.0,8.0,-999,0.00,,,-99.99,,2013-06-01 15:22:00,
2013-06-01 10:33:00,68.0,-99.9,-100.00,South,169,4.0,7.0,-999,0.00,,,-99.99,,2013-06-01 15:33:00,
2013-06-01 10:43:00,68.0,-99.9,-100.00,South,169,4.0,7.0,-999,0.00,,,-99.99,,2013-06-01 15:43:00,
2013-06-01 10:54:00,68.0,-99.9,-100.00,South,169,4.0,7.0,-999,0.00,,,-99.99,,2013-06-01 15:54:00,
2013-06-01 11:33:00,69.0,-99.9,-100.00,South,181,4.0,6.0,-999,0.00,,,0.00,,2013-06-01 16:33:00,
2013-06-01 11:43:00,69.0,-99.9,-100.00,South,181,4.0,6.0,-999,0.00,,,0.00,,2013-06-01 16:43:00,
2013-06-01 11:53:00,69.0,-99.9,-100.00,South,181,4.0,6.0,-999,0.00,,,0.00,,2013-06-01 16:53:00,
2013-06-01 12:02:00,70.0,-99.9,-100.00,South,179,3.0,7.0,-999,0.00,,,0.00,,2013-06-01 17:02:00,
2013-06-01 12:12:00,70.0,-99.9,-100.00,South,179,3.0,7.0,-999,0.00,,,0.00,,2013-06-01 17:12:00,
2013-06-01 12:22:00,70.0,-99.9,-100.00,South,179,3.0,7.0,-999,0.00,,,0.00,,2013-06-01 17:22:00,
2013-06-01 12:32:00,72.0,-99.9,-100.00,SSW,207,5.0,9.0,-999,0.00,,,0.00,,2013-06-01 17:32:00,
2013-06-01 12:43:00,72.0,-99.9,-100.00,SSW,207,5.0,9.0,-999,0.00,,,0.00,,2013-06-01 17:43:00,
2013-06-01 12:52:00,72.0,-99.9,-100.00,South,179,3.0,5.0,-999,0.00,,,0.00,,2013-06-01 17:52:00,
2013-06-01 13:02:00,72.0,-99.9,-100.00,South,179,3.0,5.0,-999,0.00,,,0.00,,2013-06-01 18:02:00,
2013-06-01 13:12:00,72.0,-99.9,-100.00,South,179,3.0,5.0,-999,0.00,,,0.00,,2013-06-01 18:12:00,
2013-06-01 13:22:00,72.0,-99.9,-100.00,South,179,3.0,5.0,-999,0.00,,,0.00,,2013-06-01 18:22:00,
2013-06-01 13:32:00,72.0,-99.9,-100.00,South,188,5.0,8.0,-999,0.00,,,0.00,,2013-06-01 18:32:00,
2013-06-01 13:42:00,72.0,-99.9,-100.00,South,188,5.0,8.0,-999,0.00,,,0.00,,2013-06-01 18:42:00,
2013-06-01 13:52:00,73.0,-99.9,-100.00,SSW,203,4.0,10.0,-999,0.00,,,0.00,,2013-06-01 18:52:00,
2013-06-01 14:02:00,73.0,-99.9,-100.00,SSW,203,4.0,10.0,-999,0.00,,,0.00,,2013-06-01 19:02:00,
2013-06-01 14:12:00,73.0,-99.9,-100.00,SSW,203,4.0,10.0,-999,0.00,,,0.00,,2013-06-01 19:12:00,
2013-06-01 14:22:00,73.0,-99.9,-100.00,SSW,203,4.0,10.0,-999,0.00,,,0.00,,2013-06-01 19:22:00,
2013-06-01 14:32:00,75.0,-99.9,-100.00,SW,215,5.0,10.0,-999,0.00,,,0.00,,2013-06-01 19:32:00,
2013-06-01 14:42:00,75.0,-99.9,-100.00,SW,215,5.0,10.0,-999,0.00,,,0.00,,2013-06-01 19:42:00,
2013-06-01 14:53:00,74.0,-99.9,-100.00,SW,215,6.0,12.0,-999,0.00,,,0.00,,2013-06-01 19:53:00,
2013-06-01 15:02:00,74.0,-99.9,-100.00,SW,215,6.0,12.0,-999,0.00,,,0.00,,2013-06-01 20:02:00,
2013-06-01 15:12:00,74.0,-99.9,-100.00,SW,215,6.0,12.0,-999,0.00,,,0.00,,2013-06-01 20:12:00,
2013-06-01 15:22:00,74.0,-99.9,-100.00,SW,215,6.0,12.0,-999,0.00,,,0.00,,2013-06-01 20:22:00,
2013-06-01 15:32:00,75.0,-99.9,-100.00,SSW,207,9.0,16.0,-999,0.00,,,0.00,,2013-06-01 20:32:00,
2013-06-01 15:42:00,75.0,-99.9,-100.00,SSW,207,9.0,16.0,-999,0.00,,,0.00,,2013-06-01 20:42:00,
2013-06-01 15:52:00,74.0,-99.9,-100.00,SW,227,6.0,10.0,-999,0.00,,,0.00,,2013-06-01 20:52:00,
2013-06-01 16:02:00,74.0,-99.9,-100.00,SW,227,6.0,10.0,-999,0.00,,,0.00,,2013-06-01 21:02:00,
2013-06-01 16:12:00,74.0,-99.9,-100.00,SW,227,6.0,10.0,-999,0.00,,,0.00,,2013-06-01 21:12:00,
2013-06-01 16:22:00,74.0,-99.9,-100.00,SW,227,6.0,10.0,-999,0.00,,,0.00,,2013-06-01 21:22:00,
2013-06-01 16:33:00,73.0,-99.9,-100.00,SW,230,8.0,12.0,-999,0.00,,,0.00,,2013-06-01 21:33:00,
2013-06-01 16:43:00,73.0,-99.9,-100.00,SW,230,8.0,12.0,-999,0.00,,,0.00,,2013-06-01 21:43:00,
2013-06-01 16:54:00,73.0,-99.9,-100.00,SW,230,8.0,12.0,-999,0.00,,,0.00,,2013-06-01 21:54:00,
2013-06-01 17:03:00,71.0,-99.9,-100.00,WSW,250,13.0,19.0,-999,0.00,,,0.00,,2013-06-01 22:03:00,
2013-06-01 17:12:00,71.0,-99.9,-100.00,WSW,250,13.0,19.0,-999,0.00,,,0.00,,2013-06-01 22:12:00,
2013-06-01 17:23:00,71.0,-99.9,-100.00,WSW,250,13.0,19.0,-999,0.00,,,0.00,,2013-06-01 22:23:00,
2013-06-01 17:33:00,70.0,-99.9,-100.00,WSW,252,11.0,16.0,-999,0.00,,,0.00,,2013-06-01 22:33:00,
2013-06-01 17:42:00,70.0,-99.9,-100.00,WSW,252,11.0,16.0,-999,0.00,,,0.00,,2013-06-01 22:42:00,
2013-06-01 17:53:00,70.0,-99.9,-100.00,WSW,247,10.0,13.0,-999,0.00,,,0.00,,2013-06-01 22:53:00,
2013-06-01 18:02:00,70.0,-99.9,-100.00,WSW,247,10.0,13.0,-999,0.00,,,0.00,,2013-06-01 23:02:00,
2013-06-01 18:12:00,70.0,-99.9,-100.00,WSW,247,10.0,13.0,-999,0.00,,,0.00,,2013-06-01 23:12:00,
2013-06-01 18:22:00,70.0,-99.9,-100.00,WSW,247,10.0,13.0,-999,0.00,,,0.00,,2013-06-01 23:22:00,
2013-06-01 18:32:00,69.0,-99.9,-100.00,West,270,11.0,15.0,-999,0.00,,,0.00,,2013-06-01 23:32:00,
2013-06-01 18:42:00,69.0,-99.9,-100.00,West,270,11.0,15.0,-999,0.00,,,0.00,,2013-06-01 23:42:00,
2013-06-01 18:52:00,69.0,-99.9,-100.00,WSW,254,12.0,16.0,-999,0.00,,,0.00,,2013-06-01 23:52:00,
2013-06-01 19:02:00,69.0,-99.9,-100.00,WSW,254,12.0,16.0,-999,0.00,,,0.00,,2013-06-02 00:02:00,
2013-06-01 19:11:00,69.0,-99.9,-100.00,WSW,254,12.0,16.0,-999,0.00,,,0.00,,2013-06-02 00:11:00,
2013-06-01 19:22:00,69.0,-99.9,-100.00,WSW,254,12.0,16.0,-999,0.00,,,0.00,,2013-06-02 00:22:00,
2013-06-01 19:32:00,67.0,-99.9,-100.00,WSW,252,11.0,17.0,-999,0.00,,,0.00,,2013-06-02 00:32:00,
2013-06-01 19:42:00,67.0,-99.9,-100.00,WSW,252,11.0,17.0,-999,0.00,,,0.00,,2013-06-02 00:42:00,
2013-06-01 19:52:00,67.0,-99.9,-100.00,WSW,251,8.0,11.0,-999,0.00,,,0.00,,2013-06-02 00:52:00,
2013-06-01 20:02:00,67.0,-99.9,-100.00,WSW,251,8.0,11.0,-999,0.00,,,0.00,,2013-06-02 01:02:00,
2013-06-01 20:11:00,67.0,-99.9,-100.00,WSW,251,8.0,11.0,-999,0.00,,,0.00,,2013-06-02 01:11:00,
2013-06-01 20:22:00,67.0,-99.9,-100.00,WSW,251,8.0,11.0,-999,0.00,,,0.00,,2013-06-02 01:22:00,
2013-06-01 20:32:00,66.0,-99.9,-100.00,WSW,246,7.0,12.0,-999,0.00,,,0.00,,2013-06-02 01:32:00,
2013-06-01 20:42:00,66.0,-99.9,-100.00,WSW,246,7.0,12.0,-999,0.00,,,0.00,,2013-06-02 01:42:00,
2013-06-01 20:52:00,65.0,-99.9,-100.00,WSW,246,6.0,8.0,-999,0.00,,,0.00,,2013-06-02 01:52:00,
2013-06-01 21:02:00,65.0,-99.9,-100.00,WSW,246,6.0,8.0,-999,0.00,,,0.00,,2013-06-02 02:02:00,
2013-06-01 21:12:00,65.0,-99.9,-100.00,WSW,246,6.0,8.0,-999,0.00,,,0.00,,2013-06-02 02:12:00,
2013-06-01 21:22:00,65.0,-99.9,-100.00,WSW,246,6.0,8.0,-999,0.00,,,0.00,,2013-06-02 02:22:00,
2013-06-01 21:32:00,66.0,-99.9,-100.00,WSW,240,7.0,9.0,-999,0.00,,,0.00,,2013-06-02 02:32:00,
2013-06-01 21:42:00,66.0,-99.9,-100.00,WSW,240,7.0,9.0,-999,0.00,,,0.00,,2013-06-02 02:42:00,
2013-06-01 21:52:00,66.0,-99.9,-100.00,WSW,240,7.0,9.0,-999,0.00,,,0.00,,2013-06-02 02:52:00,
2013-06-01 22:02:00,65.0,-99.9,-100.00,SW,220,4.0,7.0,-999,0.00,,,0.00,,2013-06-02 03:02:00,
2013-06-01 22:11:00,65.0,-99.9,-100.00,SW,220,4.0,7.0,-999,0.00,,,0.00,,2013-06-02 03:11:00,
2013-06-01 22:22:00,65.0,-99.9,-100.00,SW,220,4.0,7.0,-999,0.00,,,0.00,,2013-06-02 03:22:00,
2013-06-01 22:33:00,65.0,-99.9,-100.00,SW,226,5.0,8.0,-999,0.00,,,0.00,,2013-06-02 03:33:00,
2013-06-01 22:43:00,65.0,-99.9,-100.00,SW,226,5.0,8.0,-999,0.00,,,0.00,,2013-06-02 03:43:00,
2013-06-01 22:53:00,65.0,-99.9,-100.00,SW,220,7.0,10.0,-999,0.00,,,0.00,,2013-06-02 03:53:00,
2013-06-01 23:03:00,65.0,-99.9,-100.00,SW,220,7.0,10.0,-999,0.00,,,0.00,,2013-06-02 04:03:00,
2013-06-01 23:13:00,65.0,-99.9,-100.00,SW,220,7.0,10.0,-999,0.00,,,0.00,,2013-06-02 04:13:00,
2013-06-01 23:23:00,65.0,-99.9,-100.00,SW,220,7.0,10.0,-999,0.00,,,0.00,,2013-06-02 04:23:00,
2013-06-01 23:33:00,64.0,-99.9,-100.00,WSW,242,7.0,8.0,-999,0.00,,,0.00,,2013-06-02 04:33:00,
2013-06-01 23:43:00,64.0,-99.9,-100.00,WSW,242,7.0,8.0,-999,0.00,,,0.00,,2013-06-02 04:43:00,
2013-06-01 23:53:00,64.0,-99.9,-100.00,SW,236,6.0,10.0,-999,0.00,,,0.00,,2013-06-02 04:53:00,